Weather in Fedorovskoe

Russia / Saint-Petersburg and Leningrad Oblast     59°39′43″N   30°31′52″E
temp.,
°C
wind,
m/s
gust,
m/s
humid.,
%
clouds,
%
prec.,
mm/h
press.,
hPa
HPBL,
m
20 june, sun
sun2000:00+19ssw35710 0.0 101883
03:00+18ssw38720 0.0 1019122
06:00+19ssw39720 0.0 1018205
09:00+25sw46550 0.0 1017527
12:00+29sw46400 0.0 10171985
15:00+31wsw57355 0.0 10162340
18:00+30wnw46421 0.0 10161339
21:00+24nne11640 0.0 101611
21 june, mon
mon2100:00+21s23700 0.0 101642
03:00+22s366132 0.0 1016121
06:00+21ssw28782 0.0 1017188
09:00+28ssw46560 0.0 1016537
12:00+32ssw46395 0.0 10162160
15:00+33ssw573434 0.0 10153026
18:00+32ssw473952 0.0 10141804
21:00+26s136110 0.0 101562
22 june, tue
tue2200:00+23ssw35747 0.1 101675
03:00+21s36815 0.1 1016103
06:00+22s38795 0.0 1017190
09:00+28s46555 0.0 1016530
12:00+32sse573646 0.0 10161477
15:00+33s57305 0.0 10151909
18:00+32sse574035 0.0 10141357
21:00+26s37575 0.0 1013129
23 june, wed
wed2300:00+21ssw4138090 0.6 1015295
03:00+19ssw3885100 1.4 1015138
06:00+22ssw398841 0.1 1015267
09:00+26sw476899 0.1 1016640
12:00+31sw474725 0.0 10162170
15:00+28nw4657100 0.0 1015394
18:00+24nw3577100 3.5 1016186
21:00+21nnw2492100 6.0 1016106
24 june, thu
thu2400:00+20nnw119435 1.4 101711
03:00+19se119374 1.4 101711
06:00+21sse11905 0.0 101759
09:00+26wsw12715 0.0 1016424
12:00+31wsw245016 0.0 10161426
15:00+34wsw253691 0.0 10142446
18:00+20se4697100 21.0 1013194
21:00+19sse3895100 41.2 1014190